カタログに戻る

DELTA 2 R/B(2)

運用中HEO
NORAD 23641·ROCKET BODY·🇺🇸 United States

打ち上げ Aug 5, 1995 から Cape Canaveral Space Force Station

Loading…

次のパス (今後24時間)

TLE

最新Source: Space-Track

元期: Sep 14, 2026, 01:57 UTC

1 23641U 95041C   26257.08163046 -.00000118  00000-0  00000-0 0  9996
2 23641  20.7863  16.2083 6426642  96.3054 184.0881  2.70406702307458

AllMySatでDELTA 2 R/B(2)をリアルタイム追跡

Download on the App Store